Lancaster, PA

6:05 PM EDT on May 26, 2018 (GMT -0400)
Lancaster

Weather History for KLNS - January, 2007

Change the Weather History Date:

Thursday, January 25, 2007

  Actual Average Record
Temperature  
Mean Temperature 26 °F -  
Max Temperature 34 °F 41 °F 58 °F (1993)
Min Temperature 15 °F 22 °F 0 °F (1987)
Degree Days  
Heating Degree Days 40    
Moisture  
Dew Point 17 °F    
Average Humidity 73    
Maximum Humidity 93    
Minimum Humidity 45    
Precipitation  
Precipitation 0.00 in - - ()
Sea Level Pressure  
Sea Level Pressure 29.89 in    
Wind  
Wind Speed 11 mph (WNW)    
Max Wind Speed 24 mph    
Max Gust Speed 34 mph    
Visibility 6 miles    
Events Fog , Snow    
Averages and records for this station are not official NWS values.
T = Trace of Precipitation, MM = Missing Value Source: NWS Daily Summary

Daily Weather History Graph

Daily Weather History Graph

Search for Another Location

Airport or City:

Astronomy

Jan. 25, 2007 Rise Set
Actual Time 7:20 AM EST 5:15 PM EST
Civil Twilight 6:50 AM EST 5:44 PM EST
Nautical Twilight 6:18 AM EST 6:17 PM EST
Astronomical Twilight 5:45 AM EST 6:49 PM EST
Moon 10:46 AM EST (1/25) No Moon Set
Length of Visible Light 10h 53m
Length of Day
9h 55m
Waxing Crescent, 47% of the Moon is Illuminated
Jan 25
Waxing Crescent
Jan 25
First Quarter
Feb 2
Full
Feb 10
Last Quarter
Feb 17
New

Hourly Weather History & Observations

Time (EST) Temp. Windchill Dew Point Humidity Pressure Visibility Wind Dir Wind Speed Gust Speed Precip Events Conditions
12:07 AM 30.2 °F 25.4 °F 28.4 °F 93% 29.93 in 4.0 mi WSW 4.6 mph - 0.00 in Snow Light Snow
12:21 AM 30.2 °F 25.4 °F 28.4 °F 93% 29.93 in 4.0 mi WSW 4.6 mph - 0.00 in Snow Light Snow
12:53 AM 30.9 °F 25.2 °F 28.0 °F 89% 29.93 in 4.0 mi West 5.8 mph - 0.00 in Snow Light Snow
1:53 AM 30.9 °F 25.2 °F 28.0 °F 89% 29.92 in 4.0 mi WSW 5.8 mph - 0.00 in   Overcast
2:53 AM 30.9 °F 23.5 °F 28.0 °F 89% 29.91 in 6.0 mi WSW 8.1 mph - N/A   Overcast
3:53 AM 30.9 °F 22.2 °F 27.0 °F 85% 29.91 in 7.0 mi WSW 10.4 mph - 0.00 in   Overcast
4:53 AM 30.0 °F 22.4 °F 24.1 °F 79% 29.91 in 10.0 mi West 8.1 mph - 0.00 in   Overcast
5:53 AM 28.9 °F 20.4 °F 23.0 °F 78% 29.91 in 10.0 mi West 9.2 mph - N/A   Overcast
6:53 AM 28.9 °F 20.4 °F 19.9 °F 69% 29.91 in 10.0 mi West 9.2 mph - N/A   Overcast
7:53 AM 28.0 °F 20.8 °F 19.0 °F 69% 29.90 in 10.0 mi WSW 6.9 mph - N/A   Overcast
8:53 AM 28.9 °F 21.1 °F 19.0 °F 67% 29.89 in 10.0 mi WSW 8.1 mph - N/A   Overcast
9:53 AM 30.9 °F 19.4 °F 19.9 °F 64% 29.88 in 10.0 mi West 17.3 mph - N/A   Overcast
10:53 AM 34.0 °F 22.7 °F 18.0 °F 52% 29.88 in 10.0 mi WNW 19.6 mph 24.2 mph N/A   Overcast
11:04 AM 28.4 °F 15.1 °F 21.2 °F 74% 29.87 in 1.8 mi NW 20.7 mph - 0.00 in Snow Light Snow
11:08 AM 28.4 °F 17.0 °F 21.2 °F 74% 29.87 in 0.8 mi NW 15.0 mph 24.2 mph 0.00 in Snow Light Snow
11:19 AM 28.4 °F 19.7 °F 24.8 °F 86% 29.87 in 2.0 mi NW 9.2 mph - 0.00 in Snow Light Snow
11:26 AM 30.2 °F 20.8 °F 23.0 °F 75% 29.87 in 8.0 mi NNW 11.5 mph - 0.00 in Snow Light Snow
11:39 AM 30.2 °F 21.9 °F 21.2 °F 69% 29.86 in 10.0 mi NW 9.2 mph - 0.00 in   Mostly Cloudy
11:53 AM 30.9 °F 20.2 °F 19.9 °F 64% 29.86 in 10.0 mi NW 15.0 mph 19.6 mph 0.00 in   Mostly Cloudy
12:53 PM 32.0 °F 21.2 °F 14.0 °F 48% 29.84 in 10.0 mi NNW 16.1 mph - N/A   Mostly Cloudy
1:53 PM 30.9 °F 21.7 °F 14.0 °F 50% 29.83 in 10.0 mi NW 11.5 mph - N/A   Overcast
2:53 PM 30.0 °F 20.0 °F 12.9 °F 49% 29.81 in 10.0 mi NNW 12.7 mph 16.1 mph N/A   Mostly Cloudy
3:53 PM 28.9 °F 17.7 °F 10.0 °F 45% 29.82 in 10.0 mi NW 15.0 mph - N/A   Overcast
4:53 PM 28.9 °F 19.8 °F 10.0 °F 45% 29.82 in 10.0 mi North 10.4 mph - N/A   Mostly Cloudy
5:53 PM 26.1 °F 18.4 °F 12.0 °F 55% 29.84 in 10.0 mi WNW 6.9 mph - N/A   Mostly Cloudy
6:51 PM 24.8 °F 11.1 °F 17.6 °F 74% 29.86 in 2.5 mi NW 18.4 mph 25.3 mph 0.00 in Snow Light Snow
6:53 PM 24.1 °F 10.1 °F 17.1 °F 75% 29.88 in 2.0 mi WNW 18.4 mph 25.3 mph 0.00 in Snow Light Snow
7:00 PM 23.0 °F 10.1 °F 17.6 °F 80% 29.87 in 1.2 mi WNW 15.0 mph 28.8 mph 0.00 in Snow Light Snow
7:02 PM 23.0 °F 9.2 °F 19.4 °F 86% 29.87 in 0.8 mi WNW 17.3 mph 28.8 mph 0.00 in Snow Light Snow
7:09 PM 23.0 °F 11.1 °F 19.4 °F 86% 29.86 in 0.2 mi NW 12.7 mph - 0.00 in Fog , Snow Heavy Snow
7:15 PM 21.2 °F 9.5 °F 19.4 °F 93% 29.87 in 0.5 mi WNW 11.5 mph - 0.00 in Fog , Snow Light Snow
7:20 PM 21.2 °F 9.5 °F 19.4 °F 93% 29.87 in 2.5 mi WNW 11.5 mph - 0.00 in Snow Light Snow
7:23 PM 23.0 °F 7.2 °F 17.6 °F 80% 29.86 in 7.0 mi WNW 23.0 mph 32.2 mph 0.00 in Snow Light Snow
7:39 PM 23.0 °F 8.0 °F 14.0 °F 68% 29.87 in 10.0 mi WNW 20.7 mph 25.3 mph 0.00 in Snow Light Snow
7:53 PM 21.9 °F 6.9 °F 15.1 °F 75% 29.89 in 9.0 mi WNW 19.6 mph - 0.00 in Snow Light Snow
8:38 PM 21.2 °F 4.5 °F 14.0 °F 74% 29.90 in 1.2 mi NNW 24.2 mph 34.5 mph 0.00 in Snow Light Snow
8:44 PM 19.4 °F 4.1 °F 15.8 °F 86% 29.90 in 0.2 mi NNW 18.4 mph 33.4 mph 0.00 in Fog Light Freezing Fog
8:51 PM 19.4 °F 6.0 °F 15.8 °F 86% 29.91 in 0.5 mi NNW 13.8 mph - 0.00 in Fog Light Freezing Fog
8:53 PM 19.0 °F 5.6 °F 15.1 °F 85% 29.93 in 0.5 mi NNW 13.8 mph - 0.00 in Fog Light Freezing Fog
9:02 PM 19.4 °F 6.0 °F 15.8 °F 86% 29.91 in 1.8 mi NNW 13.8 mph - 0.00 in Snow Light Snow
9:06 PM 19.4 °F 5.0 °F 14.0 °F 80% 29.91 in 3.0 mi NNW 16.1 mph 19.6 mph 0.00 in Snow Light Snow
9:14 PM 19.4 °F 5.5 °F 12.2 °F 74% 29.92 in 9.0 mi NNW 15.0 mph 20.7 mph 0.00 in Snow Light Snow
9:23 PM 19.4 °F 4.5 °F 8.6 °F 63% 29.92 in 10.0 mi NNW 17.3 mph 24.2 mph 0.00 in   Scattered Clouds
9:53 PM 19.0 °F 5.0 °F 8.1 °F 62% 29.96 in 10.0 mi NW 15.0 mph 23.0 mph 0.00 in Snow Light Snow
10:16 PM 17.6 °F 2.7 °F 10.4 °F 73% 29.95 in 2.5 mi NW 16.1 mph 24.2 mph 0.00 in Snow Light Snow
10:22 PM 17.6 °F 5.0 °F 10.4 °F 73% 29.96 in 3.0 mi NW 11.5 mph - 0.00 in Snow Light Snow
10:42 PM 17.6 °F 1.7 °F 8.6 °F 68% 29.96 in 9.0 mi NW 18.4 mph 24.2 mph 0.00 in Snow Light Snow
10:53 PM 17.1 °F 2.5 °F 7.0 °F 65% 29.99 in 10.0 mi NNW 15.0 mph 26.5 mph 0.00 in   Partly Cloudy
11:53 PM 15.1 °F -0.6 °F 1.0 °F 54% 30.01 in 9.0 mi NNW 16.1 mph 24.2 mph 0.00 in Snow Light Snow